When you browse on this site, cookies collect data to enhance your experience and personalize the content and advertising you see.
Visit our Privacy Policy to learn more. By continuing to use the site, you agree to this use of cookies and data.
  • In Latvia
  • List of Countries
  • For 7 days
  • Water Temperature
  • Satellite Maps
  • Weather Map
  • Weather Widgets
  • user-avatar
    Login

    Hourly Weather Jazdowiczki

    Today, 20 February, Wednesday

    Time Temperature Precipitation Wind Pressure Humidity
    00:00 +5°C° 0.4 mm 4 mps 744 mmHg 83%
    01:00 +5°C° 0 mm 4 mps 744 mmHg 84%
    02:00 +4°C° 0 mm 4 mps 744 mmHg 85%
    03:00 +4°C° 0 mm 4 mps 744 mmHg 86%
    04:00 +3°C° 0 mm 4 mps 744 mmHg 87%
    05:00 +2°C° 0 mm 5 mps 744 mmHg 87%
    06:00 +1°C° 0 mm 5 mps 745 mmHg 86%
    07:00 +1°C° 0 mm 5 mps 745 mmHg 86%
    08:00 +2°C° 0 mm 5 mps 745 mmHg 82%
    09:00 +3°C° 0 mm 6 mps 746 mmHg 78%
    10:00 +3°C° 0 mm 7 mps 746 mmHg 74%
    11:00 +4°C° 0 mm 6 mps 746 mmHg 72%
    12:00 +4°C° 0 mm 6 mps 746 mmHg 70%
    13:00 +4°C° 0 mm 6 mps 746 mmHg 68%
    14:00 +4°C° 0 mm 6 mps 746 mmHg 67%
    15:00 +4°C° 0 mm 6 mps 747 mmHg 67%
    16:00 +5°C° 0 mm 5 mps 747 mmHg 66%
    17:00 +5°C° 0 mm 5 mps 747 mmHg 69%
    18:00 +4°C° 0 mm 4 mps 747 mmHg 73%
    19:00 +4°C° 0 mm 3 mps 748 mmHg 76%
    20:00 +4°C° 0.1 mm 3 mps 748 mmHg 77%
    21:00 +4°C° 0.1 mm 3 mps 748 mmHg 78%
    22:00 +4°C° 0.1 mm 3 mps 749 mmHg 79%
    23:00 +4°C° 0 mm 3 mps 749 mmHg 79%

    Tomorrow, 21 February, Thursday

    Time Temperature Precipitation Wind Pressure Humidity
    00:00 +4°C° 0 mm 3 mps 749 mmHg 80%
    01:00 +3°C° 0 mm 3 mps 749 mmHg 81%
    02:00 +3°C° 0 mm 4 mps 749 mmHg 81%
    03:00 +3°C° 0 mm 4 mps 749 mmHg 82%
    04:00 +3°C° 0 mm 4 mps 749 mmHg 82%
    05:00 +3°C° 0 mm 4 mps 749 mmHg 81%
    06:00 +3°C° 0 mm 4 mps 749 mmHg 81%
    07:00 +3°C° 0 mm 4 mps 749 mmHg 80%
    08:00 +3°C° 0 mm 5 mps 749 mmHg 76%
    09:00 +5°C° 0 mm 5 mps 749 mmHg 72%
    10:00 +6°C° 0 mm 5 mps 749 mmHg 68%
    11:00 +6°C° 0 mm 5 mps 749 mmHg 66%
    12:00 +6°C° 0 mm 5 mps 749 mmHg 64%
    13:00 +7°C° 0 mm 5 mps 748 mmHg 62%
    14:00 +7°C° 0.5 mm 5 mps 748 mmHg 65%
    15:00 +6°C° 0.5 mm 5 mps 748 mmHg 68%
    16:00 +6°C° 0.5 mm 5 mps 747 mmHg 72%
    17:00 +5°C° 0.9 mm 6 mps 747 mmHg 74%
    18:00 +4°C° 0.9 mm 6 mps 747 mmHg 77%
    19:00 +4°C° 0.9 mm 7 mps 747 mmHg 80%
    20:00 +4°C° 0.4 mm 7 mps 747 mmHg 80%
    21:00 +4°C° 0.4 mm 7 mps 746 mmHg 80%
    22:00 +4°C° 0.4 mm 7 mps 746 mmHg 80%
    23:00 +4°C° 0.4 mm 6 mps 746 mmHg 82%

    Day after tomorrow, 22 February, Friday

    Time Temperature Precipitation Wind Pressure Humidity
    00:00 +4°C° 0.4 mm 6 mps 745 mmHg 84%
    01:00 +4°C° 0.4 mm 6 mps 745 mmHg 86%
    02:00 +4°C° 0.9 mm 6 mps 745 mmHg 87%
    03:00 +4°C° 0.9 mm 6 mps 745 mmHg 88%
    04:00 +4°C° 0.9 mm 6 mps 744 mmHg 89%
    05:00 +4°C° 0.5 mm 6 mps 745 mmHg 89%
    06:00 +4°C° 0.5 mm 6 mps 745 mmHg 89%
    07:00 +4°C° 0.5 mm 6 mps 746 mmHg 88%
    08:00 +2°C° 0.4 mm 6 mps 747 mmHg 84%
    09:00 0°C° 0.4 mm 7 mps 748 mmHg 80%
    10:00 -2°C° 0.4 mm 7 mps 749 mmHg 76%
    11:00 -2°C° 0 mm 7 mps 751 mmHg 71%
    12:00 -2°C° 0 mm 6 mps 752 mmHg 65%
    13:00 -2°C° 0 mm 6 mps 753 mmHg 60%
    14:00 -2°C° 0 mm 6 mps 753 mmHg 58%
    15:00 -2°C° 0 mm 6 mps 754 mmHg 56%
    16:00 -3°C° 0 mm 6 mps 755 mmHg 54%
    17:00 -4°C° 0 mm 6 mps 755 mmHg 56%
    18:00 -5°C° 0 mm 5 mps 756 mmHg 59%
    19:00 -6°C° 0 mm 5 mps 757 mmHg 61%
    20:00 -6°C° 0 mm 5 mps 757 mmHg 59%
    21:00 -6°C° 0 mm 5 mps 758 mmHg 57%
    22:00 -6°C° 0 mm 5 mps 758 mmHg 55%
    23:00 -7°C° 0 mm 4 mps 759 mmHg 53%

    23 February, Saturday

    Time Temperature Precipitation Wind Pressure Humidity
    00:00 -7°C° 0 mm 4 mps 759 mmHg 50%
    01:00 -7°C° 0 mm 4 mps 759 mmHg 48%
    02:00 -7°C° 0 mm 4 mps 759 mmHg 46%
    03:00 -7°C° 0 mm 4 mps 759 mmHg 45%
    04:00 -7°C° 0 mm 4 mps 759 mmHg 43%
    05:00 -8°C° 0 mm 4 mps 760 mmHg 43%
    06:00 -7°C° 0 mm 3 mps 760 mmHg 43%
    07:00 -7°C° 0 mm 3 mps 760 mmHg 43%
    08:00 -6°C° 0 mm 3 mps 761 mmHg 41%
    09:00 -7°C° 0 mm 4 mps 761 mmHg 38%
    10:00 -5°C° 0 mm 4 mps 761 mmHg 35%
    11:00 -4°C° 0 mm 4 mps 761 mmHg 33%
    12:00 -4°C° 0 mm 3 mps 761 mmHg 30%
    13:00 -2°C° 0 mm 3 mps 761 mmHg 28%
    14:00 -2°C° 0 mm 3 mps 761 mmHg 28%
    15:00 -2°C° 0 mm 3 mps 760 mmHg 29%
    16:00 -2°C° 0 mm 3 mps 760 mmHg 30%
    17:00 -4°C° 0 mm 3 mps 760 mmHg 33%
    18:00 -3°C° 0 mm 2 mps 760 mmHg 37%
    19:00 -4°C° 0 mm 2 mps 761 mmHg 40%
    20:00 -4°C° 0 mm 2 mps 761 mmHg 41%
    21:00 -2°C° 0 mm 1 mps 761 mmHg 42%
    22:00 -2°C° 0 mm 1 mps 761 mmHg 42%
    23:00 -2°C° 0 mm 1 mps 760 mmHg 42%

    24 February, Sunday

    Time Temperature Precipitation Wind Pressure Humidity
    00:00 -2°C° 0 mm 1 mps 760 mmHg 43%
    01:00 -2°C° 0 mm 1 mps 760 mmHg 43%
    02:00 -2°C° 0 mm 1 mps 760 mmHg 42%
    03:00 -2°C° 0 mm 1 mps 760 mmHg 41%
    04:00 -2°C° 0 mm 1 mps 759 mmHg 40%
    05:00 -2°C° 0 mm 1 mps 759 mmHg 41%
    06:00 -2°C° 0 mm 1 mps 759 mmHg 41%
    07:00 -2°C° 0 mm 1 mps 759 mmHg 42%
    08:00 -3°C° 0 mm 2 mps 759 mmHg 38%
    09:00 -2°C° 0 mm 2 mps 759 mmHg 35%
    10:00 -1°C° 0 mm 2 mps 759 mmHg 31%
    11:00 +1°C° 0 mm 2 mps 759 mmHg 31%
    12:00 +1°C° 0 mm 2 mps 758 mmHg 32%
    13:00 +1°C° 0 mm 3 mps 758 mmHg 32%
    14:00 +2°C° 0 mm 2 mps 758 mmHg 35%
    15:00 +2°C° 0 mm 2 mps 758 mmHg 37%
    16:00 +2°C° 0 mm 2 mps 758 mmHg 40%
    17:00 +1°C° 0 mm 2 mps 758 mmHg 43%
    18:00 -1°C° 0 mm 2 mps 758 mmHg 46%
    19:00 -1°C° 0 mm 2 mps 758 mmHg 49%
    20:00 -1°C° 0 mm 2 mps 758 mmHg 50%
    21:00 -1°C° 0 mm 2 mps 758 mmHg 51%
    22:00 -1°C° 0 mm 2 mps 758 mmHg 52%
    23:00 -1°C° 0 mm 2 mps 758 mmHg 53%

    25 February, Monday

    Time Temperature Precipitation Wind Pressure Humidity
    00:00 -1°C° 0 mm 2 mps 758 mmHg 53%
    01:00 -1°C° 0 mm 2 mps 758 mmHg 54%
    02:00 -1°C° 0 mm 2 mps 758 mmHg 55%
    03:00 -2°C° 0 mm 2 mps 758 mmHg 57%
    04:00 -2°C° 0 mm 2 mps 758 mmHg 59%
    05:00 -2°C° 0 mm 2 mps 757 mmHg 59%
    06:00 -2°C° 0 mm 2 mps 757 mmHg 59%
    07:00 -2°C° 0 mm 2 mps 757 mmHg 59%
    08:00 -1°C° 0 mm 2 mps 757 mmHg 59%
    09:00 0°C° 0 mm 3 mps 757 mmHg 60%
    10:00 +1°C° 0 mm 3 mps 757 mmHg 61%
    11:00 +1°C° 0 mm 4 mps 757 mmHg 59%
    12:00 +3°C° 0 mm 4 mps 756 mmHg 56%
    13:00 +3°C° 0 mm 5 mps 756 mmHg 54%
    14:00 +4°C° 0 mm 4 mps 755 mmHg 57%
    15:00 +3°C° 0 mm 4 mps 755 mmHg 60%
    16:00 +3°C° 0 mm 4 mps 755 mmHg 63%
    17:00 +1°C° 0 mm 4 mps 755 mmHg 72%
    18:00 +1°C° 0 mm 3 mps 755 mmHg 80%
    19:00 0°C° 0 mm 3 mps 756 mmHg 88%
    20:00 0°C° 0 mm 3 mps 756 mmHg 89%
    21:00 -1°C° 0 mm 3 mps 756 mmHg 90%
    22:00 -1°C° 0 mm 3 mps 756 mmHg 91%
    23:00 -1°C° 0 mm 3 mps 756 mmHg 91%
    Show more